Location: Melbourne
(37.8666°S, 145.1333°E)
Time: 23:13:16
(UTC+11:00)

Daily predictions for brighter satellites

Satellite Brightness Start Highest point End
(mag) Time Altitude Azimuth Time Altitude Azimuth Time Altitude Azimuth
Cosmos 1943 Rocket 4.2 20:41:03 10° SW 20:45:36 27° WNW 20:50:08 10° NNW
Meteor 1-11 Rocket 4.1 20:40:28 10° NNE 20:45:44 44° E 20:51:00 10° SSE
NOAA 12 4.2 20:43:17 10° SSE 20:48:42 87° WSW 20:54:04 10° NNW
HJ-1C 4.1 20:47:23 10° SSE 20:50:38 35° E 20:53:50 10° NNE
SJ 16-02 3.6 20:51:15 10° SE 20:52:29 11° ESE 20:53:42 10° ESE
Cosmos 1833 Rocket 4.1 20:49:12 10° NE 20:52:46 17° E 20:56:21 10° ESE
Nadezhda 4 Rocket 4.1 20:48:09 10° N 20:54:12 61° E 21:00:24 10° SSE
USA 186 3.6 20:54:19 10° ESE 20:55:16 11° E 20:56:03 10° ENE
Cosmos 1602 3.8 20:51:20 10° N 20:55:16 88° E 20:59:18 10° S
Meteor 1-13 Rocket 4.4 20:51:17 10° S 20:57:05 58° ESE 21:02:40 10° NNE
Hubble Space Telescope 3.1 20:55:45 10° NW 20:57:28 12° NNW 20:59:10 10° N
FengYun 1-2 T 4.3 20:52:21 10° SSE 20:57:50 57° E 21:03:14 10° N
ATLAS 3B CENTAUR R/B 3.3 20:54:10 10° WNW 20:57:59 30° N 21:05:43 10° ENE
Okean 1 4.0 20:55:10 10° SSW 20:59:15 59° W 21:03:16 10° N
USA 267 3.5 20:53:50 10° ENE 21:00:18 64° SE 21:06:50 10° SW
Cosmos 540 Rocket 4.1 20:58:29 10° NNE 21:03:05 34° E 21:07:43 10° SE
Cosmos 841 Rocket 3.4 21:00:40 10° N 21:05:52 75° ENE 21:11:07 10° SSE
CZ-3A R/B 3.4 21:06:54 10° NNE 21:07:19 10° NNE 21:07:44 10° NNE
Cosmos 1092 Rocket 4.2 21:03:37 10° NNE 21:09:43 56° E 21:15:57 10° SSE
Abrixas rocket 2.6 21:07:58 10° SW 21:11:16 56° SSE 21:13:47 15° ENE
MOS 1-B Rocket 3.9 21:08:24 10° SSE 21:14:00 58° ENE 21:19:53 10° N
Meteor 2-4 Rocket 3.9 21:12:59 10° S 21:18:58 70° E 21:24:54 10° NNE
Cosmos 1818 4.5 21:14:23 10° SW 21:19:31 45° WNW 21:24:37 10° N
Cosmos 1461 3.2 21:16:07 10° NNW 21:20:42 79° WSW 21:25:08 10° SSE
Cosmos 405 3.6 21:17:50 10° NNW 21:21:23 59° W 21:24:58 10° S
ATLAS 5 CENTAUR R/B 3.9 21:18:22 10° SSW 21:22:05 17° SSE 21:24:17 10° ESE
ALOS 4.3 21:19:53 10° S 21:24:04 31° WSW 21:28:12 10° NW
Cosmos 2150 Rocket 4.2 21:19:23 10° SSW 21:24:38 72° WNW 21:29:53 10° N
Envisat 3.4 21:21:40 10° SSE 21:26:35 43° E 21:31:20 10° N
Cosmos 1437 Rocket 3.0 21:27:39 15° NNE 21:30:34 46° E 21:34:18 10° SSE
Cosmos 2082 Rocket 2.6 21:31:44 10° N 21:36:59 42° ENE 21:42:17 10° SE
DMSP B5D2-2 4.4 21:36:36 20° NE 21:40:01 51° ESE 21:45:11 10° S
Cosmos 292 Rocket 4.0 21:36:39 11° N 21:41:01 47° ENE 21:45:42 10° SSE
SL-27 R/B 3.7 21:37:40 10° NW 21:41:04 44° WSW 21:44:34 10° S
Cosmos 1125 Rocket 3.9 21:36:17 10° S 21:41:25 48° ESE 21:44:18 24° NE
COSMOS 2487 4.0 21:41:55 21° E 21:41:55 21° E 21:44:14 10° SE
FALCON 9 R/B 4.0 21:35:25 10° WNW 21:42:20 71° NNE 22:11:28 10° E
ATLAS 2AS CENTAUR R/B 3.2 21:36:55 10° SW 21:43:02 52° WNW 21:48:50 14° N
Tiangong 2 1.4 21:40:00 10° NW 21:43:03 42° NNE 21:43:44 36° ENE
Cosmos 1515 4.3 21:41:11 10° S 21:44:54 40° E 21:46:10 30° ENE
CZ-2D R/B 3.6 21:41:42 10° S 21:45:39 69° WSW 21:49:32 10° NNW
Cosmos 2195 Rocket 4.4 21:39:54 10° N 21:46:02 77° E 21:52:13 10° S
Cosmos 1939 Rocket 3.2 21:45:16 10° SSE 21:49:21 48° E 21:51:14 28° NNE
CZ-3C R/B 3.4 21:48:45 10° NNW 21:49:56 14° N 21:49:56 14° N
Meteor 1-29 3.8 21:50:01 18° NNW 21:52:17 46° W 21:55:37 10° SSW
Intercosmos 25 Rocket 4.5 21:50:35 10° SSE 21:53:10 22° ESE 21:53:10 22° ESE
Cosmos 2026 Rocket 4.0 21:47:30 10° N 21:53:52 77° E 22:00:14 10° S
SJ-6B 4.5 21:50:36 10° S 21:54:03 33° WSW 21:57:29 10° NW
Resurs 01 Rocket 1.6 21:52:15 10° SSE 21:56:46 87° ENE 22:00:30 15° NNW
Cosmos 1025 Rocket 3.2 21:53:28 10° S 21:57:52 57° E 21:59:31 35° NE
Cosmos 1536 4.4 21:58:12 10° NW 22:01:52 34° WSW 22:05:36 10° SSW
GPS 2-04 Rocket1 4.0 21:59:08 10° NW 22:01:31 26° N 22:01:31 26° N
NOSS 3-4 (A) 3.9 21:56:20 10° SSW 22:03:21 58° SE 22:06:49 28° ENE
NOSS 3-4 (C) 4.0 21:56:26 10° SSW 22:03:27 57° SE 22:06:55 28° ENE
YAOGAN 6 2.6 22:02:23 10° SSE 22:06:12 69° E 22:07:12 45° NNE
PSLV R/B 3.2 22:05:46 10° WSW 22:08:45 61° NW 22:08:45 61° NW
Meteor 1-4 Rocket 2.7 22:08:47 52° ENE 22:08:58 53° E 22:12:34 10° SSE
Helios 1B rocket 4.4 22:05:39 10° NNW 22:09:04 25° W 22:12:32 10° SW
Okean 1 Rocket 3.5 22:06:59 14° NNW 22:10:51 62° W 22:15:24 10° S
BREEZE-M DEB (TANK) 4.2 21:57:27 10° NW 22:11:19 62° NE 22:15:21 10° ESE
Cosmos 2344 4.5 21:58:48 10° SSW 22:11:47 69° SE 22:17:42 28° NE
Shenzhou-11 Module 2.8 22:09:39 10° W 22:12:40 52° SSW 22:13:42 34° SE
Helios 1A 4.4 22:11:42 10° SE 22:14:15 23° ESE 22:14:15 23° ESE
Cosmos 1697 Rocket 3.0 22:10:09 10° SSW 22:15:45 53° ESE 22:17:43 36° ENE
SJ-11-01 4.2 22:12:14 10° SSE 22:17:05 79° ENE 22:19:17 33° N
Cosmos 372 Rocket 4.0 22:12:27 10° SSW 22:17:43 84° WNW 22:19:50 37° N
Cosmos 2369 3.8 22:20:00 10° SSW 22:25:41 71° WNW 22:27:58 37° N
USA 186 4.1 22:23:43 10° SSW 22:25:42 19° WSW 22:27:21 12° WNW
Okean 2 3.7 22:22:45 10° SSW 22:26:58 64° W 22:28:09 43° NNW
Spot 2 Rocket 3.9 22:22:16 10° S 22:27:20 63° WSW 22:31:24 16° NNW
S3M 4.0 22:22:39 10° S 22:29:09 73° E 22:31:38 40° NNE
H-2A R/B 3.5 22:26:56 10° SE 22:30:25 23° E 22:30:25 23° E
SJ 16-02 1.5 22:27:08 10° SSW 22:31:34 68° WNW 22:32:31 51° NNW
BREEZE-M DEB (TANK) 4.0 22:32:32 10° SSW 22:35:20 31° SE 22:37:23 24° E
Cosmos 1833 Rocket 3.2 22:30:33 10° NW 22:36:07 59° WSW 22:41:45 10° SSE
Cosmos 2278 4.0 22:31:06 10° SSW 22:36:44 60° WNW 22:38:45 38° N
Cosmos 773 Rocket 4.4 22:37:51 44° E 22:37:51 44° E 22:42:45 10° SSE
Timation 2 Rocket 4.1 22:38:45 47° NE 22:39:28 49° ENE 22:45:15 10° SE
Cosmos 1892 Rocket 3.5 22:35:41 10° S 22:40:05 67° E 22:40:09 66° E
USA 267 4.3 22:40:50 25° NNW 22:43:30 33° NW 22:49:22 10° WSW
Cosmos 1980 Rocket 2.5 22:39:06 10° SSW 22:44:38 53° ESE 22:45:39 47° E
NOSS 2-2 (E) 4.4 22:41:05 10° SSW 22:47:52 59° SE 22:49:04 48° E
SL-16 R/B 3.8 22:44:50 10° S 22:49:04 21° SE 22:50:28 19° ESE
NOAA 11 4.1 22:45:33 10° SSE 22:51:04 87° ENE 22:52:29 52° N
Cosmos 1238 Rocket 4.4 22:53:15 10° S 22:55:09 24° SSE 22:55:09 24° SSE
Cosmos 2285 Rocket 4.3 22:56:36 45° ENE 22:56:40 45° E 23:02:44 10° SSE
Cosmos 1975 3.8 22:58:19 39° WNW 22:58:59 42° W 23:02:55 10° S
Orbus 7S? 4.4 22:49:07 10° NW 22:59:34 80° NE 23:03:53 10° SE
Cosmos 1743 3.4 23:04:57 54° SW 23:04:57 54° SW 23:08:23 10° S
Cosmos 44 Rocket 4.2 23:09:02 39° ESE 23:09:02 39° ESE 23:12:32 10° SE
Cosmos 1271 Rocket 4.1 23:13:24 34° SSE 23:13:24 34° SSE 23:15:43 10° SSE
Cosmos 2322 Rocket 3.3 23:08:22 10° S 23:13:25 31° ESE 23:14:03 30° ESE
Milstar 3 Cent rocket 4.2 23:09:30 10° WNW 23:12:01 16° NW 23:12:01 16° NW
Cosmos 1602 Rocket 4.4 23:13:02 10° S 23:16:25 43° SE 23:16:25 43° SE
RESURS DK-1 4.0 23:15:34 10° S 23:18:26 27° SE 23:18:26 27° SE
Cosmos 2082 Rocket 4.2 23:16:33 10° WNW 23:21:12 26° WSW 23:25:53 10° S
Cosmos 389 Rocket 4.5 23:23:09 27° S 23:23:09 27° S 23:24:54 10° S
Cosmos 1666 4.4 23:28:44 31° SW 23:28:44 31° SW 23:31:31 10° SSW
ERS-1 Rocket 3.1 23:22:57 10° S 23:28:02 68° WSW 23:28:14 67° W
MetOp-A 4.3 23:22:38 10° S 23:28:02 66° WSW 23:28:42 60° WNW
Terra 3.6 23:24:24 10° SE 23:26:35 22° ESE 23:26:35 22° ESE
Cosmos 1340 Rocket 4.1 23:24:35 10° S 23:27:18 38° SSE 23:27:18 38° SSE
Mayak 0.7 23:32:53 23° SE 23:32:53 23° SE 23:35:13 10° SSE
Cosmos 1455 Rocket 4.4 23:33:07 34° W 23:33:16 34° WSW 23:37:21 10° SSW
Cosmos 1244 Rocket 4.4 23:34:07 72° E 23:34:12 72° E 23:40:27 10° S
deb Chang Zheng 4 4.4 23:35:56 51° SSW 23:35:56 51° SSW 23:39:17 10° SSW
CZ-2C R/B 2.7 23:37:18 77° W 23:37:18 77° W 23:42:47 10° SSW
Cosmos 923 Rocket 4.2 23:39:28 66° SSE 23:39:28 66° SSE 23:44:02 10° SSE
Cosmos 44 3.7 23:42:29 67° WSW 23:42:29 67° WSW 23:47:51 10° SSE
SL-24 R/B - RUBIN 2 4.4 23:37:16 10° SW 23:43:31 73° WNW 23:43:41 72° NW
SPOT 1/Viking Rocket 3.8 23:39:10 10° SSE 23:43:32 63° SSE 23:43:32 63° SSE
CZ-4C R/B 2.9 23:47:31 62° ENE 23:47:31 62° ENE 23:54:35 10° SE
ARGOS 4.0 23:47:18 10° S 23:52:31 45° WSW 23:53:21 42° W
